Dewpoint
61 62 61 61 60 60 60 58 58 58 58 58 58 56 55 54 51 50 50 56 57 61 60 60 63 66 65 65 63 62 60 59 58 57 56 55 55 56 57 57 57 56 56
62 62 61 60 60 60 60 59 59 59 59 58 57 58 57 56 55 55 54 54 59 60 62 61 61 63 65 65 65 65 63 62 61 60 59 57 56 55 55 56 56 56 56
61 62 61 60 60 59 59 59 58 57 58 58 58 59 59 59 59 59 58 57 57 59 61 61 61 62 63 63 64 64 64 64 64 63 61 60 59 57 56 55 56 56 56
59 60 60 58 57 59 58 58 58 55 57 58 58 58 59 59 59 59 59 59 58 57 59 62 63 63 64 63 63 63 63 64 63 64 64 62 61 60 58 57 56 57 56
58 58 59 59 57 56 55 54 55 56 57 58 58 59 60 60 59 60 59 60 60 60 59 60 61 62 63 64 62 62 61 62 62 62 63 63 63 62 61 59 57 57 57
59 59 60 60 59 58 57 57 56 58 59 59 60 60 60 60 60 59 59 60 59 60 60 60 60 59 61 63 61 61 60 61 62 62 61 61 62 63 63 62 60 58 57
61 60 61 60 60 60 60 59 59 59 60 61 61 58 56 57 58 58 58 58 58 59 58 58 58 57 59 61 60 60 60 59 59 58 58 59 59 60 62 62 62 61 59
63 62 61 61 61 60 60 61 61 61 61 61 59 56 53 54 55 55 54 55 54 54 55 55 55 55 55 56 57 58 57 57 57 57 57 57 58 58 59 59 61 62 61
63 63 62 62 62 62 62 62 62 61 60 60 60 56 52 50 52 55 53 54 53 52 51 51 52 53 53 52 52 55 58 57 57 56 56 55 56 58 59 59 60 60 60
63 63 63 63 63 64 63 62 62 62 61 59 57 57 57 57 54 50 53 53 53 50 50 50 50 50 50 52 54 55 57 57 56 55 55 55 55 56 56 57 57 58 57
61 61 62 62 62 61 60 60 59 58 58 57 56 54 52 51 53 53 48 48 51 51 51 49 49 47 49 50 51 54 55 55 55 54 54 54 54 54 55 55 55 56 55
60 60 60 61 61 59 58 57 57 56 55 54 53 52 52 49 47 47 49 48 47 49 49 48 47 46 48 49 52 53 54 53 53 53 53 53 52 53 54 54 54 53 54
57 58 58 58 57 54 54 53 53 52 52 52 52 51 51 51 51 49 49 48 47 48 47 45 46 45 47 48 49 50 51 51 51 51 51 51 51 51 54 52 51 52 52
58 57 56 54 52 51 51 50 50 50 49 49 49 49 50 50 50 50 52 50 47 49 49 47 45 45 47 47 48 48 48 48 48 49 49 49 49 50 53 53 53 53 53
56 55 53 50 50 49 48 48 47 47 47 47 47 48 49 50 50 49 50 51 49 45 46 45 45 44 46 45 46 45 46 47 47 47 46 48 48 48 51 52 53 53 54
52 50 49 48 47 47 46 46 45 46 46 47 48 48 47 47 47 47 49 50 50 48 45 46 44 44 45 44 45 43 44 45 44 44 45 45 46 47 49 50 51 51 52
50 48 47 45 45 44 44 44 44 44 44 45 44 44 45 45 45 46 48 47 47 48 47 43 43 43 43 43 42 42 42 41 41 42 43 43 43 44 46 47 48 49 49
45 45 44 43 43 42 42 41 41 41 43 43 43 43 43 45 43 43 43 43 44 44 45 43 41 41 40 40 40 40 40 38 37 37 40 40 41 44 44 43 44 45 46
43 43 42 41 41 41 40 39 39 39 39 39 39 40 41 41 40 41 42 43 42 41 42 42 39 39 38 38 38 38 37 36 30 32 35 37 38 38 41 40 39 39 40
41 40 40 40 39 39 38 38 38 37 37 37 37 37 38 41 41 41 41 41 41 40 41 40 39 38 37 37 37 35 35 32 29 24 27 30 32 36 36 36 33 32 33
40 39 38 38 38 37 38 37 37 37 37 38 39 38 39 40 41 41 40 40 40 39 38 37 37 37 36 35 34 33 33 28 26 25 24 22 23 22 28 27 29 31 32
38 37 37 37 37 38 40 41 40 37 38 40 39 38 40 40 40 40 39 38 38 38 37 36 36 36 35 34 31 30 27 23 24 26 22 19 21 20 21 24 29 30 33
36 36 36 36 36 36 40 41 41 38 37 38 37 36 36 36 33 33 35 35 36 36 36 35 35 33 32 30 28 25 25 25 23 25 23 18 22 20 23 23 30 30 31
35 35 35 35 35 36 40 41 40 37 34 34 35 35 34 32 31 30 27 27 26 28 27 26 29 28 28 28 28 27 26 25 24 23 21 20 21 21 24 24 31 29 29
34 34 34 34 34 34 40 40 39 34 34 34 33 33 32 30 31 31 26 26 26 27 32 32 33 32 32 31 29 26 26 23 22 20 22 20 22 22 23 25 25 32 31
34 33 34 34 35 32 38 40 39 35 34 34 33 30 34 26 27 31 24 24 24 25 25 23 22 21 22 26 30 24 27 24 23 22 22 23 23 22 21 23 25 25 25
Lifted_Index
2 2 2 2 3 4 4 5 4 4 3 3 3 3 3 3 3 3 3 3 3 3 2 2 2 1 1 1 2 2 3 3 4 4 4 4 5 5 6 6 6 5 5
2 2 2 2 3 3 4 4 4 3 3 3 3 2 2 2 2 2 2 2 2 2 2 2 2 1 1 1 1 2 2 3 3 3 4 4 4 5 5 6 6 5 5
1 1 1 2 3 3 3 3 3 3 3 3 2 2 2 2 2 2 2 2 2 2 2 2 2 2 1 1 1 1 1 1 2 2 3 3 4 4 5 5 6 5 5
-0 -0 0 1 2 3 3 3 3 3 3 2 2 1 1 1 1 2 2 2 2 2 2 2 2 1 1 1 1 1 1 1 1 1 2 3 3 4 4 4 5 5 5
-1 -1 -1 -0 1 1 2 2 2 1 1 1 1 1 1 1 1 1 2 2 2 2 2 1 1 1 1 2 1 1 1 1 1 1 1 2 3 3 3 4 4 4 4
-2 -2 -2 -2 -1 -0 0 0 0 0 0 0 0 1 1 1 1 2 2 2 2 2 2 1 1 1 1 2 2 2 2 1 1 1 2 2 2 3 3 3 3 3 3
-2 -2 -2 -2 -2 -1 -0 -0 -0 -0 -0 0 1 1 1 1 2 2 2 2 3 2 2 2 2 1 2 2 3 3 2 2 2 2 2 3 3 3 3 2 2 2 2
-2 -2 -2 -2 -2 -1 -1 -1 -1 -1 -0 0 0 1 1 2 2 2 2 2 3 3 3 2 2 2 2 3 4 4 4 3 3 3 3 3 3 3 3 3 2 1 1
-1 -1 -1 -1 -1 -1 -1 -1 -1 -1 -1 -0 0 1 1 2 2 2 2 3 3 3 3 3 3 3 3 4 4 4 4 4 4 3 4 4 4 4 4 3 2 1 1
-1 -1 -1 -1 -1 -1 -1 -1 -1 -1 -1 -1 -0 0 1 2 2 3 4 4 4 4 4 3 3 3 4 4 4 4 4 4 4 4 5 5 6 6 5 5 4 3 2
-0 -0 -0 -0 0 0 0 0 -0 0 -0 0 1 1 2 3 4 5 5 5 5 5 5 4 4 4 4 4 4 4 4 4 5 5 6 6 7 7 7 6 5 4 4
-0 0 0 0 1 1 2 1 1 1 2 2 3 4 5 5 5 6 6 6 6 6 5 5 5 4 4 4 4 4 5 5 5 6 7 7 8 8 8 7 6 6 5
-0 -0 0 1 1 2 2 2 2 2 3 4 5 6 6 6 6 6 6 7 7 6 6 6 5 5 5 5 5 5 5 5 6 6 7 8 9 9 8 8 7 6 6
-0 -0 0 1 1 2 2 2 2 3 5 6 7 7 7 7 6 6 7 7 7 7 7 6 6 5 5 5 5 6 6 6 6 7 8 8 9 10 9 8 7 6 6
-0 -0 0 1 1 1 2 2 3 4 5 6 7 7 8 7 7 7 7 8 8 7 7 7 6 6 5 5 5 6 6 6 7 7 8 8 9 10 9 8 8 7 6
-0 0 0 1 1 1 2 3 3 4 5 6 7 7 7 7 7 7 7 8 8 7 7 7 6 6 5 5 5 6 6 6 7 7 8 9 9 10 10 10 9 9 8
-0 0 0 1 1 2 3 3 4 4 5 6 6 7 7 7 7 7 7 7 7 7 7 7 6 6 5 5 5 6 6 7 7 8 8 9 10 10 11 11 10 10 9
1 1 1 2 3 3 4 4 5 5 6 6 6 7 7 7 7 7 7 7 7 7 7 6 6 6 5 5 5 6 6 7 7 8 9 10 10 10 11 11 11 11 10
3 3 3 4 4 5 5 5 5 6 6 6 7 7 7 7 7 7 7 7 7 7 7 6 6 6 6 5 5 6 6 7 8 9 10 10 10 10 11 11 11 11 11
4 4 5 5 5 6 6 6 6 6 6 7 7 7 7 7 7 7 7 7 7 6 6 6 6 6 6 6 6 6 7 7 8 9 10 10 10 11 12 12 12 12 11
5 5 6 6 6 6 6 6 6 6 6 7 7 7 8 8 8 8 7 7 7 6 6 6 6 6 6 6 7 7 8 9 9 10 10 11 12 13 14 14 14 14 14
6 6 6 6 6 6 6 6 7 7 7 7 7 8 8 9 9 9 8 8 7 7 7 6 6 6 7 7 8 9 10 11 11 12 12 13 14 15 16 17 17 17 17
6 6 6 6 6 6 7 7 7 8 8 9 9 9 9 10 10 10 9 9 10 10 10 9 9 9 9 10 11 12 12 13 13 14 14 14 15 16 17 18 19 19 19
6 6 6 6 6 6 7 7 8 8 9 9 10 10 10 10 11 10 10 10 12 14 14 14 13 13 13 13 14 14 14 14 14 15 15 14 15 16 17 18 19 19 19
5 5 5 5 6 6 7 7 8 8 9 9 10 10 11 11 11 11 12 12 14 16 17 17 17 16 16 16 16 16 15 14 13 14 15 15 15 15 16 17 18 18 18
5 5 5 5 5 6 7 7 8 8 8 8 9 10 11 11 11 13 14 14 15 15 16 17 17 17 18 18 18 17 15 13 12 13 15 15 15 15 15 16 17 18 18